[[{"header":{"parameterUnit":"m.s-1","parameterCategory":1,"la1":30.2991,"la2":30.254,"lo1":-89.0895,"lo2":-89.0444,"dy":0.0017,"dx":0.0017,"nx":28,"ny":28,"refTime":"2023-10-03T21:00:00:Z","depth":0,"parameterNumber":2,"parameterNumberName":"U-component_of_WINDS"},"data":[0,0,0,0,0,0,0,0,0,0,0,0,0,0,0,0,0,0,0,0,0,0,0,0,0,0,0,0,0,0,0,0,0,0,0,0,0,0,0,0,0,0,0,0,0,0,0,0,0,0,0,0,0,0,0,0,0,0,-4.0771,-4.0771,0,-4.0745,-4.0745,-4.0745,-4.06,-4.0597,-4.0593,-4.059,-4.0564,-4.0566,-4.0569,0,0,0,0,0,0,0,0,0,0,0,0,0,-4.0697,-4.0699,-4.0771,-4.0771,-4.077,-4.0745,-4.0745,-4.0745,-4.0601,-4.0597,-4.0593,-4.0589,-4.0563,-4.0566,-4.0569,0,0,0,0,0,0,0,0,0,0,0,0,0,-4.0706,-4.07,-4.0771,-4.0696,-4.0689,-4.0745,-4.0745,-4.0745,-4.0602,-4.0597,-4.0591,-4.0587,-4.0562,-4.0566,-4.0569,-4.0697,0,0,-4.0581,-4.0583,0,0,0,0,0,0,0,0,-4.0706,-4.0709,-4.0707,-4.0701,-4.0693,-4.0671,-4.0709,-4.0729,-4.0603,-4.0635,-4.059,-4.0584,-4.0604,-4.0604,-4.061,-4.0695,-4.0694,-4.0581,-4.0584,-4.0585,-4.0586,0,0,0,0,0,0,0,-4.0705,-4.0709,-4.0761,-4.0707,-4.0699,-4.0664,-4.0659,-4.0712,-4.0649,-4.0632,-4.0621,-4.062,-4.0599,-4.0607,-4.0608,-4.0694,-4.0581,-4.0585,-4.0587,-4.0588,-4.0883,-4.0888,0,0,0,0,0,0,-4.0715,-4.071,-4.0761,-4.076,-4.0687,-4.0669,-4.0664,-4.0683,-4.0648,-4.0637,-4.0625,-4.0613,-4.0603,-4.0604,-4.0607,-4.0752,-4.0585,-4.0589,-4.0591,-4.0877,-4.0884,-4.089,0,0,0,0,0,0,-4.0714,-4.0721,-4.0763,-4.0732,-4.0735,-4.0676,-4.0699,-4.0685,-4.0693,-4.0642,-4.063,-4.0644,-4.0599,-4.0602,-4.0675,-4.075,-4.059,-4.0594,-4.0871,-4.0879,-4.0887,-4.1046,0,0,0,0,0,0,-4.0713,-4.0722,-4.0769,-4.0734,-4.0737,-4.0831,-4.0703,-4.0689,-4.07,-4.0685,-4.0658,-4.0648,-4.0595,-4.0671,-4.0679,-4.0752,-4.0597,-4.0864,-4.0875,-4.0884,-4.1033,-4.1058,-4.108,0,0,0,0,0,-4.0711,-4.0814,-4.0772,-4.0779,-4.0794,-4.0836,-4.0837,-4.0774,-4.0707,-4.0753,-4.0721,-4.0649,-4.0742,-4.0679,-4.0688,-4.0763,-4.0859,-4.0872,-4.0884,-4.1023,-4.1053,-4.1079,0,0,0,0,0,0,-4.0858,-4.0808,-4.076,-4.0856,-4.0852,-4.0811,-4.0868,-4.0808,-4.0822,-4.0808,-4.073,-4.0725,-4.081,-4.0794,-4.0726,-4.0885,-4.0788,-4.0803,-4.0891,-4.0919,-4.0942,-4.0942,-4.06,0,0,0,0,0,-4.0902,-4.0939,-4.0894,-4.0983,-4.0983,-4.0927,-4.0943,-4.0895,-4.0887,-4.0884,-4.0857,-4.0852,-4.0879,-4.0899,-4.0922,-4.1032,-4.1024,-4.1088,-4.1112,-4.1131,-4.1143,-4.12,-4.1228,-4.0931,-4.0931,-4.0931,0,0,-4.0992,-4.0969,-4.0998,-4.1012,-4.1002,-4.1043,-4.0926,-4.0974,-4.1003,-4.0891,-4.0958,-4.0939,-4.0929,-4.1021,-4.1061,-4.1011,-4.1224,-4.1147,-4.1162,-4.1164,-4.1216,-4.1244,-4.1269,-4.094,-4.0938,-4.0937,0,0,-4.1176,-4.1164,-4.1236,-4.123,-4.1218,-4.1181,-4.1199,-4.1169,-4.1152,-4.1219,-4.1135,-4.1171,-4.122,-4.1216,-4.122,-4.1409,-4.1342,-4.1419,-4.1537,-4.1594,-4.1617,-4.1638,-4.1703,-4.1727,-4.1432,-4.1433,-4.1433,0,-4.1289,-4.1346,-4.1281,-4.1334,-4.1343,-4.1246,-4.1318,-4.1316,-4.1312,-4.1321,-4.1266,-4.1327,-4.1313,-4.1403,-4.1449,-4.1457,-4.1475,-4.1419,-4.162,-4.1639,-4.1657,-4.1718,-4.1743,-4.1442,-4.1441,-4.144,-4.1439,0,-4.1485,-4.1528,-4.1588,-4.1587,-4.1603,-4.1667,-4.1611,-4.1636,-4.1589,-4.1557,-4.1628,-4.1609,-4.1626,-4.1645,-4.1599,-4.1729,-4.1698,-4.1633,-4.1533,-4.1696,-4.1752,-4.1775,-4.1455,-4.1451,-4.1449,-4.1446,0,0,-4.1756,-4.1721,-4.1744,-4.1743,-4.1725,-4.1756,-4.1817,-4.1834,-4.1856,-4.1859,-4.1907,-4.1953,-4.1893,-4.1899,-4.1852,-4.1903,-4.2051,-4.183,-4.1829,-4.187,-4.2192,-4.2239,-4.2267,-4.2009,-4.2014,-4.2017,-4.2192,0,-4.193,-4.2029,-4.1973,-4.2081,-4.2118,-4.2029,-4.2082,-4.2077,-4.2051,-4.208,-4.2051,-4.2085,-4.2004,-4.2007,-4.2053,-4.2023,-4.2114,-4.2011,-4.2051,-4.2053,-4.2052,-4.2297,-4.2345,-4.2512,-4.2214,-4.2218,-4.2221,0,-4.2144,-4.2157,-4.2269,-4.2245,-4.2259,-4.2307,-4.2319,-4.2349,-4.2342,-4.232,-4.2329,-4.2271,-4.2329,-4.2235,-4.2313,-4.2243,-4.2258,-4.2247,-4.2252,-4.2249,-4.2144,-4.2298,-4.2563,-4.2587,-4.2255,-4.2252,-4.225,0,-4.2327,-4.2373,-4.2445,-4.2448,-4.2423,-4.2458,-4.245,-4.2439,-4.2454,-4.2466,-4.2474,-4.2494,-4.2503,-4.252,-4.2469,-4.2405,-4.2554,-4.2455,-4.2536,-4.2537,-4.2567,-4.2565,-4.2835,-4.2584,-4.2583,-4.2583,-4.2582,0,-4.2525,-4.2596,-4.2527,-4.2571,-4.2648,-4.2586,-4.2664,-4.2646,-4.2638,-4.2677,-4.2603,-4.2642,-4.2574,-4.2607,-4.2568,-4.2638,-4.2644,-4.2627,-4.2615,-4.2631,-4.2633,-4.2636,-4.2622,-4.2589,-4.2588,-4.2587,-4.2586,0,-4.2739,-4.2696,-4.2769,-4.2741,-4.2736,-4.2794,-4.277,-4.281,-4.2781,-4.2832,-4.2841,-4.2795,-4.283,-4.2782,-4.2812,-4.2786,-4.2882,-4.2854,-4.2883,-4.2874,-4.2956,-4.2948,-4.3234,-4.3267,-4.2999,-4.3001,-4.3004,0,-4.2865,-4.2918,-4.2897,-4.2919,-4.2915,-4.295,-4.2966,-4.2908,-4.2927,-4.2926,-4.2966,-4.2995,-4.3014,-4.3074,-4.3043,-4.3066,-4.3036,-4.3136,-4.3039,-4.3054,-4.3034,-4.303,-4.3034,-4.3153,-4.3157,-4.3159,-4.3161,0,-4.3094,-4.3071,-4.3096,-4.3116,-4.3137,-4.3149,-4.3155,-4.3177,-4.3117,-4.3143,-4.3178,-4.3193,-4.3225,-4.3253,-4.3269,-4.326,-4.3201,-4.3193,-4.3212,-4.3227,-4.3241,-4.3232,-4.2933,-4.3185,-4.3183,-4.3181,-4.318,-4.3179,-4.3265,-4.3308,-4.3301,-4.3332,-4.3332,-4.3341,-4.3377,-4.3354,-4.3382,-4.3403,-4.3369,-4.3413,-4.3408,-4.3422,-4.3421,-4.3455,-4.3411,-4.344,-4.3446,-4.3453,-4.3465,-4.324,-4.3458,-4.3457,-4.3456,-4.3456,-4.3455,0,-4.3487,-4.3479,-4.3509,-4.3521,-4.3547,-4.3492,-4.3498,-4.3522,-4.3562,-4.3563,-4.3584,-4.3625,-4.3654,-4.3628,-4.3652,-4.3684,-4.3658,-4.3692,-4.3687,-4.3685,-4.3503,-4.3483,-4.3713,-4.3713,-4.3713,-4.3713,-4.3713,-4.3713,-4.3605,-4.3674,-4.3652,-4.3721,-4.3713,-4.3755,-4.3763,-4.3771,-4.3772,-4.3821,-4.3845,-4.3829,-4.3819,-4.3842,-4.3867,-4.3858,-4.3869,-4.3913,-4.3895,-4.3724,-4.3698,-4.3674,-4.3654,-4.3917,-4.3917,-4.4073,-4.4075,-4.4076]},{"header":{"parameterUnit":"m.s-1","parameterCategory":1,"la1":30.2991,"la2":30.254,"lo1":-89.0895,"lo2":-89.0444,"dy":0.0017,"dx":0.0017,"nx":28,"ny":28,"refTime":"2023-10-03T21:00:00:Z","depth":0,"parameterNumber":3,"parameterNumberName":"V-component_of_WINDS"},"data":[0,0,0,0,0,0,0,0,0,0,0,0,0,0,0,0,0,0,0,0,0,0,0,0,0,0,0,0,0,0,0,0,0,0,0,0,0,0,0,0,0,0,0,0,0,0,0,0,0,0,0,0,0,0,0,0,0,0,1.0692,1.0689,0,1.0426,1.0423,1.042,1.0189,1.0186,1.0183,1.0181,0.9915,0.9911,0.9906,0,0,0,0,0,0,0,0,0,0,0,0,0,1.1009,1.1004,1.0692,1.0689,1.0686,1.0426,1.0423,1.0419,1.0189,1.0186,1.0183,1.018,0.9917,0.9912,0.9906,0,0,0,0,0,0,0,0,0,0,0,0,0,1.082,1.1003,1.0693,1.054,1.0523,1.0427,1.0422,1.0418,1.019,1.0186,1.0182,1.0178,0.9919,0.9912,0.9905,0.9942,0,0,0.9884,0.9881,0,0,0,0,0,0,0,0,1.0831,1.0809,1.0565,1.055,1.0531,1.0336,1.0436,1.0259,1.0191,1.0317,1.0181,1.0176,1.0059,1.004,0.9999,0.9929,0.9918,0.9884,0.9879,0.9876,0.9874,0,0,0,0,0,0,0,1.0845,1.0819,1.0587,1.0562,1.0541,1.0486,1.0455,1.0402,1.0214,1.0305,1.0288,1.0259,1.0049,1.0007,0.9991,0.9914,0.9884,0.9878,0.9873,0.9871,0.9861,0.9865,0,0,0,0,0,0,1.088,1.0832,1.0595,1.0579,1.0674,1.0484,1.0449,1.0403,1.0213,1.0181,1.0263,1.0249,1.002,1.0,0.9981,1.0011,0.9876,0.987,0.9866,0.9857,0.9862,0.9866,0,0,0,0,0,0,1.0888,1.0861,1.0606,1.07,1.0663,1.0482,1.0433,1.04,1.0357,1.0181,1.0147,1.0253,1.0016,0.9991,0.9953,0.9999,0.9867,0.986,0.9852,0.9859,0.9864,1.0072,0,0,0,0,0,0,1.0898,1.0866,1.0876,1.0702,1.0659,1.0581,1.0436,1.0398,1.0345,1.0325,1.0163,1.0133,1.0011,0.9964,0.9946,0.9987,0.9855,0.9848,0.9855,0.9862,1.006,1.0084,1.0105,0,0,0,0,0,1.091,1.0947,1.0878,1.085,1.0668,1.0584,1.0559,1.0416,1.0349,1.0359,1.0246,1.0138,0.9997,0.9962,0.994,0.9979,0.9844,0.9853,0.9861,1.005,1.0079,1.0104,0,0,0,0,0,0,1.1133,1.0921,1.0842,1.0823,1.0723,1.0545,1.0552,1.0452,1.0371,1.0356,1.0184,1.015,1.0131,1.0051,1.0016,1.0005,0.9906,0.9911,1.0057,1.0084,1.0106,1.0125,0.9849,0,0,0,0,0,1.1179,1.1126,1.0945,1.0946,1.0899,1.0736,1.0693,1.0592,1.0482,1.0439,1.0323,1.0224,1.0156,1.0115,1.0044,1.0048,1.001,1.0064,1.0086,1.0106,1.0112,1.0108,1.013,0.9895,0.9895,0.9895,0,0,1.1275,1.1153,1.113,1.0987,1.0897,1.0848,1.0701,1.0655,1.0618,1.0433,1.0388,1.0301,1.0178,1.0161,1.0148,1.0094,1.0168,1.0117,1.0133,1.0128,1.012,1.0142,1.0162,0.9901,0.99,0.9899,0,0,1.1424,1.1327,1.1316,1.1229,1.1095,1.0985,1.0984,1.0821,1.0754,1.0707,1.0568,1.0522,1.041,1.0328,1.0272,1.0392,1.0289,1.0374,1.049,1.0489,1.0507,1.0523,1.0566,1.0584,1.038,1.0381,1.0381,0,1.1561,1.1479,1.1324,1.1286,1.1228,1.1056,1.1046,1.097,1.0821,1.0786,1.0727,1.0582,1.0487,1.0449,1.0479,1.0439,1.0432,1.0391,1.0517,1.0531,1.0543,1.0582,1.0599,1.0392,1.0391,1.0389,1.0388,0,1.1654,1.16,1.1608,1.1465,1.1408,1.1385,1.1228,1.1189,1.1094,1.0992,1.0948,1.0828,1.0729,1.0713,1.062,1.0662,1.0633,1.0548,1.0445,1.0579,1.0613,1.0627,1.0408,1.0404,1.04,1.0398,0,0,1.1935,1.1707,1.1712,1.1646,1.1485,1.1441,1.1412,1.1312,1.1283,1.1187,1.1158,1.1067,1.0988,1.0924,1.0821,1.0821,1.0924,1.0735,1.073,1.0775,1.0964,1.1028,1.1048,1.0855,1.0858,1.0859,1.0974,0,1.2058,1.199,1.185,1.1828,1.1776,1.1614,1.1587,1.1488,1.1393,1.1337,1.1232,1.1171,1.107,1.1031,1.1023,1.0913,1.096,1.0903,1.0829,1.0828,1.0864,1.1065,1.1133,1.1247,1.0986,1.0989,1.099,0,1.2191,1.2102,1.2075,1.1917,1.189,1.1869,1.1768,1.1716,1.1601,1.1532,1.1462,1.1348,1.1309,1.1216,1.1162,1.1127,1.1088,1.103,1.1031,1.1018,1.0917,1.1058,1.128,1.1297,1.1009,1.1008,1.1007,0,1.2399,1.2273,1.2239,1.2187,1.2003,1.1992,1.1916,1.1796,1.1746,1.1659,1.1625,1.1536,1.1487,1.1422,1.1288,1.1232,1.125,1.1145,1.1193,1.1197,1.1203,1.1204,1.1422,1.118,1.118,1.118,1.1179,0,1.255,1.2539,1.2329,1.2309,1.2293,1.2134,1.2124,1.2032,1.1928,1.1888,1.1744,1.1711,1.1536,1.1484,1.1379,1.1351,1.133,1.1275,1.1247,1.1287,1.1294,1.1259,1.1248,1.1184,1.1183,1.1182,1.1181,0,1.2778,1.2637,1.259,1.242,1.2377,1.2373,1.2228,1.2204,1.21,1.2052,1.2032,1.1871,1.1802,1.1661,1.1555,1.1484,1.1481,1.1432,1.1519,1.1502,1.1557,1.1554,1.1759,1.1778,1.1527,1.153,1.1532,0,1.2884,1.2871,1.27,1.2662,1.259,1.2531,1.2479,1.2323,1.2275,1.2144,1.2136,1.2055,1.1981,1.1879,1.1754,1.1672,1.162,1.1698,1.1607,1.1648,1.1621,1.1623,1.1622,1.1718,1.1722,1.1724,1.1727,0,1.3086,1.3017,1.2945,1.285,1.2791,1.271,1.2621,1.2599,1.2423,1.2377,1.2303,1.2246,1.2136,1.2059,1.1958,1.1882,1.1777,1.1757,1.1763,1.1804,1.1855,1.1828,1.1574,1.1752,1.175,1.1748,1.1746,1.1745,1.3255,1.3236,1.3113,1.3039,1.2955,1.2875,1.2844,1.2736,1.2671,1.2567,1.248,1.2415,1.2301,1.2155,1.2086,1.2034,1.1982,1.1992,1.1994,1.1999,1.2016,1.1864,1.2015,1.2014,1.2013,1.2013,1.2012,0,1.3449,1.3362,1.3295,1.3174,1.3117,1.302,1.2917,1.2876,1.2819,1.2721,1.2651,1.2568,1.2492,1.2362,1.2275,1.2259,1.2209,1.2242,1.2242,1.2226,1.2067,1.207,1.2284,1.2284,1.2284,1.2284,1.2284,1.2284,1.3543,1.3507,1.3424,1.3346,1.3258,1.319,1.314,1.3067,1.2988,1.29,1.2835,1.275,1.2639,1.2544,1.2471,1.2435,1.241,1.2459,1.2408,1.2263,1.2237,1.2213,1.2214,1.2455,1.2455,1.257,1.2571,1.2572]}]]